www.pogodaiklimat.ru

Погода и климат >> Архив погоды >> Россия >> Коми >> Вендинга


ПОГОДА в Вендинге

  • Прогноз погоды в Вендинге
  • Монитор погоды в Вендинге

АРХИВ ПОГОДЫ в Вендинге

Время (UTC), дата Ветер
(напр.,м/с)
 
Видим.   Явления Облачность Т
(С)
Тd
(С)
f
(%)
Тe
(С)
Тes
(С)
Комфортность P
(гПа)
Po
(гПа)
Тmin
(С)
Tmax
(С)
R
(мм)
R24
(мм)
S
(см)
18 17.06 штиль 0 20 км 6/0
[Ac cast Cc]
+11.3 +6.1 70 +11 +11 1006.0 996.4
00 18.06 штиль 0 20 км 6/0
[Ac cast]
+2.4 +1.4 93 +1 +1 1007.4 997.5
03 18.06 Ю 4 20 км ясно +10.1 +2.0 57 +8 +10 1006.9 997.3 +2.2
06 18.06 ЮЗ 2 20 км 3/0
[Cc]
+16.2 +2.8 41 +16 +26 1005.6 996.2
09 18.06 З 4 20 км 9/5 600 м
[Cu med, cong Ac cuf Cc]
+18.5 +1.4 32 +19 +21 1004.9 995.5
12 18.06 З 5-11
{11}
20 км 8/5 600 м
[Cu med, cong Ci fib]
+19.9 +3.6 34 +20 +22 1004.0 994.7
15 18.06 С 5
{11}
20 км 3/3 600 м
[Cu med, cong]
+19.4 +2.7 33 +19 +20 1004.2 994.9 +20.6
18 18.06 С 3
{10}
20 км 1/0
[Ci fib]
+14.5 -0.1 37 +14 +14 1005.9 996.4
00 19.06 СЗ 1 20 км ясно +4.6 +1.4 80 +3 +4 1008.6 998.8
03 19.06 С 2 20 км ясно +8.9 +1.8 61 +7 +11 1009.3 999.6 +4.1
06 19.06 С 3 20 км 3/0
[Ci sp]
+12.0 +0.7 46 +11 +18 1009.1 999.5
09 19.06 СЗ 3 20 км 9/0
[Ac As Cc]
+15.3 +0.3 36 +15 +19 1008.9 999.5
12 19.06 З 2 20 км 9/0
[Ac cast Cc]
+17.3 -0.5 30 +18 +24 1008.2 998.8
15 19.06 З 2 20 км 9/1 600 м
[Cb cap Ac cast Cc]
+16.4 +2.4 39 +17 +18 1007.2 998.2 +17.7
18 19.06 штиль 0 20 км 9/3 600 м
[Cb cap Ac cuf Cc]
+11.8 +5.6 66 +11 +11 1006.6 997.1
00 20.06 штиль 0 10 км слаб. дождь 10/6 500 м
[Sc Ac As]
+10.9 +9.7 92 +10 +10 1004.6 995.1
03 20.06 З 2 20 км {дождь} 9/3 600 м
[Sc Ac As]
+13.1 +11.3 89 +12 +13 1004.6 995.1 +9.4 0.7
06 20.06 СЗ 4
{10}
20 км {дождь} 9/8 720 м
[Cb cap Ac cast Cc]
+15.8 +9.9 68 +15 +16 1005.4 996.0
09 20.06 СЗ 8-13
{14}
20 км {гроза, ливн. осадки} 9/6 600 м
[Cb cap Ac cast]
+13.2 +6.3 63 +11 +11 1008.4 998.9
12 20.06 СЗ 6
{13}
20 км {гроза, ливн. осадки} 10/8 800 м
[Cb cap Ac As]
+11.4 +4.6 63 +9 +9 1012.2 1002.6
15 20.06 С 5
{13}
20 км 3/3 600 м
[Cu hum]
+12.1 +2.3 51 +10 +11 1014.0 1004.4 +17.7 0.0
18 20.06 штиль 0 20 км 9/0
[Ac As]
+10.3 +3.2 61 +10 +10 1014.9 1005.2
00 21.06 штиль 0 20 км местами туман поземный {ливн. осадки} 6/0
[Ac lent]
+5.6 +4.5 93 +5 +5 1016.6 1006.8
03 21.06 штиль 0 20 км 3/0
[Ac trans Cc]
+10.9 +3.9 62 +11 +14 1017.4 1007.7 +5.3 0.0
06 21.06 СЗ 2 20 км 4/0
[Cc]
+15.0 +1.8 41 +15 +24 1016.9 1007.3
09 21.06 З 4 20 км 8/4 600 м
[Cu hum Ac cast Cc]
+17.4 +0.8 33 +17 +21 1016.2 1006.7
12 21.06 СЗ 4 20 км 9/3 600 м
[Cb cap Ac cast]
+18.8 +2.4 33 +19 +21 1015.8 1006.4
15 21.06 З 2 20 км 10/4 600 м
[Cb cap Ac und]
+17.9 +5.5 44 +18 +19 1015.0 1005.5 +19.0
18 21.06 ЮВ 1 20 км {ливн. осадки} 9/3 600 м
[Cb cap Ac cast]
+14.3 +8.0 66 +15 +15 1014.1 1004.6
00 22.06 СВ 2 20 км {ливн. осадки} 10/5 600 м
[Cb cap Ac As Cc]
+12.8 +7.8 72 +12 +12 1009.7 1000.2
03 22.06 ЮВ 2 20 км 6/0
[Ac As Cc]
+14.8 +9.8 72 +15 +17 1007.3 997.8 +11.9 0.0
06 22.06 ЮВ 2 20 км гроза без осадков {ливн. осадки} 10/4 300 м
[Cb cap Ac cuf Cc]
+16.9 +14.5 86 +17 +20 1005.7 996.4
09 22.06 З 3 20 км 9/5 600 м
[Cb cap Ac cuf Cc]
+25.5 +16.0 56 +29 +32 душно 1004.2 995.1
12 22.06 ЮЗ 4 20 км гроза без осадков {ливн. осадки} 9/8 500 м
[Cb cap Cc]
+24.1 +15.6 59 +27 +28 жарко 1003.9 994.8
15 22.06 СВ 2 20 км гроза без осадков {ливн. осадки} 10/6 300 м
[Cb cap As op Cs]
+23.7 +16.0 62 +27 +27 жарко 1004.2 995.1 +27.4 3
18 22.06 ЮЗ 3 10 км гроза, ливневой дождь 10/9 400 м
[Cb cap As op]
+18.4 +16.9 91 +19 +19 1004.6 995.3
00 23.06 Ю 1 20 км местами туман поземный {гроза, ливн. осадки} 9/4 300 м
[Cb cap Ac trans Cc]
+15.1 +14.3 95 +16 +16 1003.5 994.1
03 23.06 З 5 20 км 9/5 660 м
[Cb cap Ac cuf Cc]
+17.2 +15.1 87 +17 +17 1003.8 994.5 +14.8 16
06 23.06 З 6-10
{14}
20 км 1/1 600 м
[Cu hum]
+19.0 +9.7 55 +19 +23 1005.1 995.8
09 23.06 З 6-11
{14}
20 км 6/6 840 м
[Cu med, cong]
+19.9 +7.9 46 +21 +23 комфорт 1006.5 997.2
12 23.06 З 6
{17}
20 км 6/6 600 м
[Cu hum]
+19.1 +3.6 36 +19 +20 1008.0 998.7
15 23.06 З 7-13
{15}
20 км {ливн. осадки} 9/6 300 м
[Cb cap Ac cuf]
+15.1 +6.2 55 +13 +13 1010.3 1000.7 +21.0 0.0
18 23.06 З 4
{13}
20 км {ливн. осадки} 9/5 600 м
[Cb cap Ac cuf Cc]
+14.0 +5.8 58 +13 +13 1010.3 1000.8
00 24.06 З 4 20 км 10/8 960 м
[Cu Sc Ac As]
+11.0 +7.1 77 +9 +9 1011.4 1001.8
03 24.06 З 4 20 км 10/10 540 м
[Sc]
+11.1 +7.2 77 +9 +9 1012.2 1002.6 +10.6
06 24.06 С 3 10 км слаб. дождь 10/4 300 м
[Sc Ac As]
+9.0 +7.0 87 +6 +8 1014.4 1004.6 +8.7
09 24.06 С 3 10 км слаб. дождь 10/6 700 м
[Cu Sc Ac As]
+10.0 +6.5 79 +8 +9 1016.0 1006.3
12 24.06 С 3 20 км {дождь} 9/4 600 м
[Cu Sc Ac As]
+11.8 +5.0 63 +10 +12 1017.3 1007.6
15 24.06 СЗ 4 20 км 10/0
[Ac As]
+11.6 +5.0 64 +10 +10 1018.0 1008.3 +12.5 1

 

Местоположение метеостанции Вендинга (Коми, Россия): широта 63.45 долгота 47.92 высота над уровнем моря 80 м.

В архиве по умолчанию представлена погода в Вендинге за последнюю неделю. Архивные данные за месяц целиком и за предыдущие месяцы, начиная с января 2011 года, Вы можете получить, выбрав интересующий диапазон дат из раскрывающегося списка и нажав кнопку "Ввод!".


*Определитесь, кто Вы:
робот инопланетянин человек

Внимание! Время в таблицах - всемирное. Для получения местного времени необходимо прибавить поправку, которая равна 3 ч.

Смотрите также архив погоды в соседних городах и на ближайших метеорологических станциях:

Погода в Кослане (Коми, Россия) (50 км)
Погода в Суре (Архангельская область, Россия) (115 км)
Погода в Койнасе (Архангельская область, Россия) (145 км)
Погода в Яренске (Архангельская область, Россия) (155 км)
Погода в Весляне (Коми, Россия) (158 км)
Погода в Карпогорах (Архангельская область, Россия) (181 км)
Погода в Усть-Выми (Коми, Россия) (186 км)
Погода в Слободчиково (Архангельская область, Россия) (190 км)
Погода в Лешуконском (Архангельская область, Россия) (192 км)
Погода в Верхней Тойме (Архангельская область, Россия) (200 км)

Пояснения к столбцам:

Ветер - указаны скорость ветра в м/с - средняя за 10 мин, порывы в срок и между сроками (в фигурных скобках) и направление, откуда дует ветер: С - северный, СВ - северо-восточный, В - восточный, ЮВ - юго-восточный, Ю - южный, ЮЗ - юго-западный, З - западный, СЗ - северо-западный.
Видимость - горизонтальная дальность видимости в метрах или километрах. При видимости от 1 до 10 км при отсутствии осадков обычно наблюдается дымка, при ухудшении видимости до 1 км и менее - туман. В сухую погоду видимость может ухудшаться дымом, пылью или мглою.
Явления - указаны атмосферные явления, наблюдавшиеся в срок или в последний час перед сроком; фигурными скобками обозначены явления, наблюдавшиеся между сроками (за 1-3 часа до срока); квадратными скобками обозначены град или гололедные отложения с указанием их диаметра в мм.
Облачность - указаны через наклонную черту общая и нижняя облачность в баллах и высота нижней границы облаков в метрах; квадратными скобками обозначены формы облаков: Ci - перистые, Cs - перисто-слоистые, Cc - перисто-кучевые, Ac - высококучевые, As - высокослоистые, Sc - слоисто-кучевые, Ns - слоисто-дождевые, Cu - кучевые, Cb - кучево-дождевые. Подробнее классификацию облаков см. в Атласе облаков (PDF).
T - Температура воздуха - температура, измеренная на высоте 2 м над землей.
Td - Температура точки росы - температура, при понижении до которой содержащийся в воздухе водяной пар достигнет насыщения.
f - Относительная влажность воздуха - влажноcть воздуха, измеренная на высоте 2 м над землей.
Te - Эффективная температура - температура, которую ощущает одетый по сезону человек в тени. Характеристика душности погоды. При расчете учитывается влияние влажности воздуха и скорости ветра на теплоощущения человека.
Tes - Эффективная температура на солнце - температура, которую ощущает человек, с поправкой на солнечный нагрев. Характеристика знойности погоды. Зависит от высоты солнца над горизонтом, облачности и скорости ветра. Ночью, в пасмурную погоду, а также при ветре 12 м/с и более поправка равна нулю.
P - Атмосферное давление - приведенное к уровню моря атмосферное давление.
Po - Атмосферное давление - измеренное на уровне метеостанции атмосферное давление.
Tmin - Минимальная температура - минимум температуры воздуха на высоте 2 м над землей.
Tmax - Максимальная температура - максимум температуры воздуха на высоте 2 м над землей.
R - Количество осадков - Количество выпавших осадков за период времени, мм. При наведении курсора мыши на число - период времени, за который выпало указанное количество осадков.
R24 - Количество осадков - Количество выпавших осадков за 24 часа, мм.
S - Снежный покров - Высота снежного покрова, см. При наведении курсора мыши на число - состояние снежного покрова и степень покрытия местности в баллах.